[[{"header":{"parameterUnit":"m.s-1","parameterCategory":1,"la1":30.2991,"la2":30.254,"lo1":-89.0895,"lo2":-89.0444,"dy":0.0017,"dx":0.0017,"nx":28,"ny":28,"refTime":"2024-04-20T03:00:00:Z","depth":0,"parameterNumber":2,"parameterNumberName":"U-component_of_WINDS"},"data":[0,0,0,0,0,0,0,0,0,0,0,0,0,0,0,0,0,0,0,0,0,0,0,0,0,0,0,0,0,0,0,0,0,0,0,0,0,0,0,0,0,0,0,0,0,0,0,0,0,0,0,0,0,0,0,0,0,0,-0.5793,-0.5794,0,-0.5823,-0.5823,-0.5823,-0.5817,-0.5817,-0.5816,-0.5816,-0.5847,-0.5848,-0.5849,0,0,0,0,0,0,0,0,0,0,0,0,0,-0.5732,-0.5733,-0.5793,-0.5794,-0.5794,-0.5823,-0.5823,-0.5823,-0.5817,-0.5817,-0.5816,-0.5815,-0.5846,-0.5848,-0.5849,0,0,0,0,0,0,0,0,0,0,0,0,0,-0.576,-0.5733,-0.5793,-0.5794,-0.5795,-0.5823,-0.5823,-0.5824,-0.5817,-0.5817,-0.5816,-0.5815,-0.5846,-0.5848,-0.585,-0.5878,0,0,-0.5856,-0.5857,0,0,0,0,0,0,0,0,-0.5758,-0.5762,-0.5794,-0.5794,-0.5795,-0.5815,-0.5813,-0.5842,-0.5818,-0.5809,-0.5816,-0.5815,-0.5837,-0.584,-0.5847,-0.588,-0.5881,-0.5856,-0.5857,-0.5858,-0.5858,0,0,0,0,0,0,0,-0.5756,-0.5761,-0.5805,-0.5794,-0.5795,-0.5793,-0.5796,-0.5818,-0.5827,-0.581,-0.5809,-0.5813,-0.5837,-0.5845,-0.5848,-0.5882,-0.5856,-0.5858,-0.5859,-0.586,-0.5939,-0.594,0,0,0,0,0,0,-0.5754,-0.5759,-0.5804,-0.5806,-0.5774,-0.5795,-0.5799,-0.581,-0.5827,-0.5829,-0.5813,-0.5812,-0.5842,-0.5845,-0.5849,-0.5884,-0.5858,-0.586,-0.5861,-0.5938,-0.5939,-0.594,0,0,0,0,0,0,-0.5752,-0.5758,-0.5803,-0.5782,-0.5788,-0.5797,-0.581,-0.5811,-0.5819,-0.583,-0.5831,-0.582,-0.5841,-0.5846,-0.5871,-0.5885,-0.5861,-0.5862,-0.5937,-0.5938,-0.594,-0.5953,0,0,0,0,0,0,-0.5751,-0.5757,-0.5768,-0.5783,-0.5789,-0.5824,-0.581,-0.5812,-0.5822,-0.5821,-0.5836,-0.5838,-0.5841,-0.5868,-0.5873,-0.5887,-0.5864,-0.5936,-0.5938,-0.5939,-0.5952,-0.5955,-0.5958,0,0,0,0,0,-0.5749,-0.5771,-0.5769,-0.5774,-0.5803,-0.5825,-0.5829,-0.5832,-0.5823,-0.5834,-0.5841,-0.5838,-0.5882,-0.587,-0.5876,-0.5891,-0.5935,-0.5937,-0.5939,-0.595,-0.5954,-0.5958,0,0,0,0,0,0,-0.5759,-0.5773,-0.5771,-0.5799,-0.5811,-0.5824,-0.5839,-0.5836,-0.5851,-0.5849,-0.5852,-0.5856,-0.5881,-0.5888,-0.5875,-0.5919,-0.5907,-0.591,-0.5914,-0.5918,-0.5921,-0.5919,-0.5866,0,0,0,0,0,-0.5765,-0.5781,-0.5793,-0.5816,-0.5822,-0.5829,-0.5839,-0.584,-0.5853,-0.5858,-0.5867,-0.588,-0.5896,-0.5907,-0.5923,-0.5952,-0.5956,-0.5965,-0.5968,-0.5971,-0.5974,-0.5989,-0.5994,-0.5947,-0.5947,-0.5947,0,0,-0.5776,-0.5786,-0.5797,-0.5819,-0.5828,-0.5846,-0.5834,-0.5853,-0.5866,-0.5861,-0.5885,-0.5892,-0.5906,-0.5933,-0.5946,-0.594,-0.5987,-0.5973,-0.5975,-0.5977,-0.5992,-0.5996,-0.6,-0.5948,-0.5948,-0.5948,0,0,-0.5807,-0.5816,-0.5836,-0.5846,-0.586,-0.5864,-0.5869,-0.5883,-0.5887,-0.5911,-0.5908,-0.5923,-0.5952,-0.5962,-0.5971,-0.6004,-0.6001,-0.6009,-0.6026,-0.6041,-0.6045,-0.6048,-0.606,-0.6064,-0.6012,-0.6012,-0.6012,0,-0.582,-0.5846,-0.5848,-0.5867,-0.5877,-0.5872,-0.5893,-0.5902,-0.5921,-0.5928,-0.5921,-0.5957,-0.5966,-0.5995,-0.6003,-0.6011,-0.6016,-0.6008,-0.6044,-0.6047,-0.605,-0.6062,-0.6066,-0.6013,-0.6013,-0.6013,-0.6013,0,-0.5861,-0.5879,-0.5894,-0.5912,-0.5923,-0.5943,-0.5948,-0.5959,-0.5959,-0.5964,-0.5988,-0.5999,-0.6017,-0.6024,-0.6024,-0.6053,-0.6049,-0.6043,-0.6031,-0.6056,-0.6067,-0.6071,-0.6014,-0.6014,-0.6014,-0.6013,0,0,-0.5901,-0.5918,-0.5924,-0.5932,-0.5946,-0.596,-0.598,-0.5997,-0.6007,-0.6019,-0.6036,-0.606,-0.6054,-0.6064,-0.6065,-0.6079,-0.6104,-0.6071,-0.6071,-0.6077,-0.6137,-0.6142,-0.6147,-0.6102,-0.6103,-0.6103,-0.6136,0,-0.5933,-0.5967,-0.5969,-0.6,-0.6017,-0.6012,-0.6029,-0.604,-0.6045,-0.606,-0.6065,-0.6082,-0.6073,-0.6079,-0.6092,-0.6098,-0.6117,-0.6096,-0.6118,-0.6119,-0.6115,-0.6153,-0.6159,-0.6189,-0.614,-0.6141,-0.6142,0,-0.5976,-0.5989,-0.6022,-0.6034,-0.6041,-0.6056,-0.6072,-0.6086,-0.6098,-0.61,-0.6111,-0.611,-0.613,-0.6116,-0.6144,-0.613,-0.6139,-0.6143,-0.6144,-0.6147,-0.6132,-0.6158,-0.6199,-0.6204,-0.6148,-0.6148,-0.6147,0,-0.6001,-0.6028,-0.6051,-0.6058,-0.6072,-0.6083,-0.6089,-0.6101,-0.6111,-0.6124,-0.6131,-0.6146,-0.6155,-0.6167,-0.617,-0.616,-0.6198,-0.6185,-0.6201,-0.6201,-0.621,-0.6209,-0.6254,-0.6214,-0.6214,-0.6214,-0.6214,0,-0.6038,-0.6058,-0.6063,-0.6077,-0.61,-0.6101,-0.6123,-0.6129,-0.6139,-0.6154,-0.6151,-0.6165,-0.6168,-0.6183,-0.6185,-0.6208,-0.6212,-0.6214,-0.6215,-0.6215,-0.6215,-0.6222,-0.622,-0.6215,-0.6215,-0.6215,-0.6214,0,-0.6071,-0.6075,-0.61,-0.6111,-0.6114,-0.613,-0.614,-0.6154,-0.6158,-0.6177,-0.6182,-0.6188,-0.6205,-0.6209,-0.623,-0.6231,-0.6258,-0.6256,-0.6254,-0.6254,-0.627,-0.6269,-0.6321,-0.6328,-0.6283,-0.6284,-0.6284,0,-0.6095,-0.611,-0.6123,-0.6133,-0.6139,-0.6155,-0.6165,-0.6167,-0.6177,-0.6192,-0.6204,-0.6221,-0.6234,-0.6262,-0.6269,-0.6284,-0.6283,-0.63,-0.6286,-0.6285,-0.6284,-0.6283,-0.6285,-0.6304,-0.6304,-0.6304,-0.6305,0,-0.6136,-0.6137,-0.6151,-0.6166,-0.6178,-0.619,-0.6202,-0.621,-0.6213,-0.6225,-0.6242,-0.6253,-0.6273,-0.629,-0.6306,-0.6312,-0.6309,-0.6309,-0.6314,-0.6315,-0.6313,-0.6314,-0.6262,-0.6308,-0.6308,-0.6308,-0.6307,-0.6307,-0.6166,-0.6179,-0.619,-0.6206,-0.6214,-0.6225,-0.6238,-0.6243,-0.6258,-0.6275,-0.6274,-0.6294,-0.6304,-0.6325,-0.6332,-0.6347,-0.6342,-0.6349,-0.635,-0.6352,-0.6354,-0.631,-0.635,-0.635,-0.635,-0.635,-0.635,0,-0.6207,-0.6214,-0.6228,-0.6244,-0.6256,-0.6251,-0.6264,-0.6275,-0.6291,-0.6302,-0.6315,-0.6335,-0.6351,-0.6358,-0.6374,-0.6384,-0.6383,-0.6388,-0.6388,-0.639,-0.6358,-0.6352,-0.6389,-0.6389,-0.6389,-0.6389,-0.6389,-0.6389,-0.623,-0.6253,-0.6255,-0.6281,-0.6288,-0.6306,-0.6314,-0.6323,-0.6331,-0.6353,-0.6367,-0.6371,-0.638,-0.6396,-0.6411,-0.6412,-0.6418,-0.6424,-0.6426,-0.6396,-0.6392,-0.6388,-0.6383,-0.6426,-0.6426,-0.6456,-0.6457,-0.6457]},{"header":{"parameterUnit":"m.s-1","parameterCategory":1,"la1":30.2991,"la2":30.254,"lo1":-89.0895,"lo2":-89.0444,"dy":0.0017,"dx":0.0017,"nx":28,"ny":28,"refTime":"2024-04-20T03:00:00:Z","depth":0,"parameterNumber":3,"parameterNumberName":"V-component_of_WINDS"},"data":[0,0,0,0,0,0,0,0,0,0,0,0,0,0,0,0,0,0,0,0,0,0,0,0,0,0,0,0,0,0,0,0,0,0,0,0,0,0,0,0,0,0,0,0,0,0,0,0,0,0,0,0,0,0,0,0,0,0,-7.3255,-7.3256,0,-7.3308,-7.3309,-7.3309,-7.3248,-7.3246,-7.3243,-7.3241,-7.3289,-7.3293,-7.3296,0,0,0,0,0,0,0,0,0,0,0,0,0,-7.3095,-7.3099,-7.3255,-7.3256,-7.3256,-7.3308,-7.3309,-7.3309,-7.3248,-7.3246,-7.3243,-7.324,-7.3288,-7.3292,-7.3296,0,0,0,0,0,0,0,0,0,0,0,0,0,-7.3158,-7.31,-7.3255,-7.3232,-7.3231,-7.3308,-7.3309,-7.331,-7.3249,-7.3246,-7.3242,-7.3239,-7.3287,-7.3292,-7.3297,-7.3397,0,0,-7.3312,-7.3315,0,0,0,0,0,0,0,0,-7.3155,-7.3164,-7.3235,-7.3234,-7.3232,-7.3268,-7.327,-7.3339,-7.325,-7.3242,-7.3241,-7.3237,-7.3285,-7.329,-7.3307,-7.3399,-7.3401,-7.3313,-7.3316,-7.3318,-7.332,0,0,0,0,0,0,0,-7.315,-7.3161,-7.3276,-7.3236,-7.3235,-7.3218,-7.3223,-7.3283,-7.3281,-7.3242,-7.3238,-7.3245,-7.3283,-7.3302,-7.3308,-7.3402,-7.3313,-7.3317,-7.332,-7.3322,-7.358,-7.3583,0,0,0,0,0,0,-7.3149,-7.3158,-7.3274,-7.3277,-7.3185,-7.3223,-7.3229,-7.326,-7.3281,-7.3281,-7.3248,-7.3242,-7.3295,-7.3302,-7.3309,-7.3428,-7.3318,-7.3323,-7.3326,-7.3576,-7.358,-7.3585,0,0,0,0,0,0,-7.3146,-7.316,-7.3272,-7.3217,-7.323,-7.323,-7.3265,-7.3263,-7.3282,-7.3286,-7.3284,-7.3268,-7.3293,-7.3302,-7.3376,-7.3429,-7.3325,-7.333,-7.3571,-7.3577,-7.3583,-7.3667,0,0,0,0,0,0,-7.3142,-7.316,-7.3199,-7.3218,-7.3233,-7.334,-7.3268,-7.3266,-7.3292,-7.3284,-7.3304,-7.3304,-7.3291,-7.3369,-7.3381,-7.3434,-7.3334,-7.3567,-7.3574,-7.3581,-7.3659,-7.3675,-7.3688,0,0,0,0,0,-7.3136,-7.3219,-7.3201,-7.3215,-7.3282,-7.3343,-7.3351,-7.3336,-7.3296,-7.3335,-7.3337,-7.3303,-7.3422,-7.3377,-7.339,-7.3446,-7.3563,-7.3572,-7.358,-7.3653,-7.3672,-7.3688,0,0,0,0,0,0,-7.3202,-7.3221,-7.3201,-7.3293,-7.3317,-7.3333,-7.3381,-7.3357,-7.3391,-7.3383,-7.3361,-7.3366,-7.3445,-7.3453,-7.3403,-7.3544,-7.3485,-7.3497,-7.3536,-7.3554,-7.3568,-7.3564,-7.3338,0,0,0,0,0,-7.3228,-7.3278,-7.329,-7.337,-7.3384,-7.3381,-7.3406,-7.3393,-7.3417,-7.3426,-7.3434,-7.3456,-7.3499,-7.3527,-7.3566,-7.3661,-7.3664,-7.3705,-7.3719,-7.3731,-7.3741,-7.3792,-7.3811,-7.3612,-7.3612,-7.3612,0,0,-7.328,-7.3297,-7.3329,-7.3384,-7.3401,-7.3452,-7.3389,-7.3445,-7.3482,-7.3434,-7.3505,-7.3512,-7.3536,-7.3621,-7.3659,-7.363,-7.3797,-7.3742,-7.3751,-7.3755,-7.3803,-7.3822,-7.3839,-7.3618,-7.3617,-7.3616,0,0,-7.3402,-7.342,-7.3489,-7.3509,-7.3537,-7.3535,-7.3551,-7.3571,-7.3575,-7.3647,-7.3612,-7.3655,-7.3728,-7.3747,-7.3766,-7.3897,-7.3867,-7.391,-7.3984,-7.4035,-7.405,-7.4064,-7.4111,-7.4129,-7.392,-7.3921,-7.3921,0,-7.3463,-7.3541,-7.3526,-7.3586,-7.3611,-7.3573,-7.3641,-7.366,-7.3699,-7.3716,-7.3683,-7.3776,-7.3789,-7.3878,-7.3911,-7.3928,-7.3945,-7.3908,-7.405,-7.4063,-7.4076,-7.4121,-7.4138,-7.3926,-7.3925,-7.3925,-7.3924,0,-7.3615,-7.3669,-7.3721,-7.3763,-7.3793,-7.3857,-7.3851,-7.3883,-7.3868,-7.3869,-7.3943,-7.3958,-7.4,-7.402,-7.4004,-7.4108,-7.4089,-7.4054,-7.3994,-7.41,-7.4142,-7.4159,-7.3933,-7.3931,-7.393,-7.3928,0,0,-7.3778,-7.3813,-7.3833,-7.3852,-7.3881,-7.3922,-7.3984,-7.4027,-7.4056,-7.4084,-7.4135,-7.4199,-7.4167,-7.4189,-7.4175,-7.4219,-7.4323,-7.4178,-7.4178,-7.4205,-7.4438,-7.4465,-7.4485,-7.4304,-7.4307,-7.431,-7.4436,0,-7.3901,-7.4011,-7.4001,-7.4105,-7.4154,-7.4119,-7.4173,-7.4196,-7.4199,-7.4241,-7.4242,-7.4289,-7.4243,-7.4256,-7.4298,-7.4302,-7.437,-7.4292,-7.435,-7.4352,-7.4345,-7.4507,-7.4534,-7.4654,-7.4453,-7.4455,-7.4457,0,-7.4059,-7.4096,-7.4206,-7.423,-7.425,-7.4299,-7.4339,-7.4379,-7.4404,-7.4403,-7.4429,-7.4408,-7.4469,-7.441,-7.4493,-7.4441,-7.4464,-7.4469,-7.4473,-7.4477,-7.4411,-7.4515,-7.4691,-7.4709,-7.4483,-7.4481,-7.4479,0,-7.4167,-7.4245,-7.4321,-7.4338,-7.4367,-7.4403,-7.4416,-7.4438,-7.4466,-7.45,-7.4517,-7.4557,-7.4579,-7.461,-7.46,-7.4557,-7.4686,-7.4625,-7.4685,-7.4686,-7.4713,-7.4712,-7.4895,-7.4729,-7.4728,-7.4728,-7.4728,0,-7.4305,-7.4374,-7.437,-7.4417,-7.4493,-7.448,-7.4554,-7.4563,-7.4584,-7.463,-7.4601,-7.4645,-7.463,-7.4672,-7.4665,-7.4735,-7.4745,-7.4745,-7.4742,-7.4748,-7.4748,-7.4762,-7.4753,-7.4733,-7.4732,-7.4731,-7.473,0,-7.4439,-7.444,-7.4521,-7.4543,-7.455,-7.4605,-7.4623,-7.4666,-7.4668,-7.4727,-7.474,-7.4742,-7.4791,-7.4784,-7.4838,-7.4833,-7.4921,-7.4908,-7.4913,-7.491,-7.4971,-7.4966,-7.517,-7.5196,-7.5013,-7.5015,-7.5016,0,-7.4527,-7.458,-7.4609,-7.464,-7.4657,-7.4706,-7.4734,-7.4724,-7.4754,-7.4789,-7.4828,-7.4875,-7.4912,-7.4992,-7.4996,-7.5037,-7.5025,-7.5094,-7.5031,-7.5035,-7.5026,-7.5023,-7.5028,-7.5106,-7.5108,-7.511,-7.5111,0,-7.4684,-7.4682,-7.4726,-7.4771,-7.4807,-7.4841,-7.4871,-7.4897,-7.489,-7.4925,-7.4977,-7.5006,-7.5063,-7.5109,-7.5149,-7.516,-7.5135,-7.5132,-7.5148,-7.5154,-7.5155,-7.5155,-7.4947,-7.5126,-7.5125,-7.5124,-7.5123,-7.5122,-7.4797,-7.4843,-7.4872,-7.4922,-7.4944,-7.4974,-7.5017,-7.5025,-7.5068,-7.5115,-7.5106,-7.5164,-7.5188,-7.5239,-7.5255,-7.5299,-7.5273,-7.5297,-7.5302,-7.5308,-7.5316,-7.5149,-7.5306,-7.5305,-7.5305,-7.5304,-7.5304,0,-7.4953,-7.497,-7.5016,-7.5062,-7.5102,-7.5077,-7.511,-7.5144,-7.5196,-7.5222,-7.5261,-7.532,-7.5366,-7.5375,-7.5418,-7.5452,-7.5441,-7.5464,-7.5461,-7.5464,-7.5336,-7.5318,-7.5472,-7.5472,-7.5472,-7.5472,-7.5471,-7.5471,-7.5038,-7.5114,-7.5116,-7.5203,-7.5219,-7.5278,-7.5299,-7.5326,-7.5347,-7.5416,-7.5455,-7.5462,-7.5481,-7.5526,-7.5567,-7.5568,-7.5585,-7.5612,-7.5609,-7.5489,-7.5473,-7.5457,-7.544,-7.5616,-7.5616,-7.5733,-7.5734,-7.5735]}]]